GW5142 Weather Reports


time (UTC)temp
F
wind
direction
speed
knots
gust
knots
rain 1hr
in
rain 24hr
in
rain mn
in
humidity
%
barometer
mb
20260508033907 42 114 0.0 0.0 0.00 0.01 0.01 83 1016.0
20260508033406 43 104 0.0 0.0 0.00 0.01 0.01 80 1015.9
20260508032903 43 119 0.0 0.0 0.00 0.01 0.01 82 1016.0
20260508032400 43 126 0.0 0.0 0.00 0.01 0.01 81 1015.9
20260508031857 43 116 0.0 0.0 0.00 0.01 0.01 82 1016.0
20260508031354 43 133 0.0 0.0 0.00 0.01 0.01 81 1015.7
20260508030850 43 133 0.0 0.0 0.00 0.01 0.01 81 1015.8
20260508030347 44 147 0.0 0.0 0.00 0.01 0.01 80 1015.6
20260508025844 44 149 0.0 0.0 0.00 0.01 0.01 80 1015.6
20260508025341 44 125 0.0 0.0 0.00 0.01 0.01 81 1015.6
20260508024838 44 342 0.9 1.7 0.00 0.01 0.01 80 1015.5
20260508024334 44 145 0.0 0.0 0.00 0.01 0.01 81 1015.4
20260508023831 44 359 0.0 0.0 0.00 0.01 0.01 81 1015.6
20260508023328 45 137 0.0 0.0 0.00 0.01 0.01 79 1015.5
20260508022825 45 139 0.0 0.0 0.00 0.01 0.01 80 1015.4
20260508022320 45 139 0.0 0.0 0.00 0.01 0.01 80 1015.3
20260508021818 46 139 0.0 0.0 0.00 0.01 0.01 79 1015.3
20260508021314 45 155 0.0 0.0 0.00 0.01 0.01 79 1015.1
20260508020810 46 140 0.0 0.0 0.00 0.01 0.01 79 1015.1
20260508020308 46 154 0.0 0.0 0.00 0.01 0.01 78 1015.0
20260508015804 46 131 0.0 0.0 0.00 0.01 0.01 78 1014.7
20260508015305 46 100 0.0 0.0 0.00 0.01 0.01 79 1014.9
20260508014759 46 23 0.0 0.0 0.00 0.01 0.01 76 1014.8
20260508014256 46 56 0.0 0.0 0.00 0.01 0.01 77 1014.6
20260508013751 47 18 0.0 0.0 0.00 0.01 0.01 76 1014.7
20260508013248 47 119 0.0 0.0 0.00 0.01 0.01 76 1014.6
20260508012745 47 359 0.0 0.0 0.00 0.01 0.01 77 1014.6
20260508012242 47 1 0.0 0.0 0.00 0.01 0.01 73 1014.3
20260508011740 48 0 0.0 0.0 0.00 0.01 0.01 72 1014.4
20260508011237 48 359 0.0 0.0 0.00 0.01 0.01 68 1014.3
20260508010734 49 356 0.0 0.0 0.00 0.01 0.01 68 1014.3
20260508010232 48 357 0.0 0.0 0.00 0.01 0.01 66 1014.3
20260508005729 49 357 0.0 0.0 0.00 0.01 0.01 67 1014.3
20260508005226 49 357 0.0 0.0 0.00 0.01 0.01 68 1014.2
20260508004721 49 6 0.0 0.0 0.00 0.01 0.01 68 1014.0
20260508004218 49 9 0.0 0.0 0.00 0.01 0.01 66 1013.9
20260508003714 50 9 0.0 0.0 0.00 0.01 0.01 69 1014.0
20260508003212 50 5 0.0 0.0 0.00 0.01 0.01 69 1013.8
20260508002708 50 5 0.0 0.0 0.00 0.01 0.01 68 1013.9
20260508002206 51 287 0.0 0.0 0.00 0.01 0.01 67 1013.6
20260508001701 52 287 0.0 0.9 0.00 0.01 0.01 65 1013.5
20260508001157 52 210 0.0 0.0 0.00 0.01 0.01 60 1013.6
20260508000654 53 210 0.0 0.0 0.00 0.01 0.01 60 1013.5
20260508000151 53 191 0.0 0.0 0.00 0.01 0.01 61 1013.5
20260507235647 53 302 0.0 1.7 0.00 0.01 0.01 57 1013.5
20260507235145 54 323 1.7 3.5 0.00 0.01 0.01 59 1013.6
20260507234642 55 61 0.0 2.6 0.00 0.01 0.01 56 1013.4
20260507234138 55 154 0.0 0.9 0.00 0.01 0.01 54 1013.3
20260507233635 55 344 0.9 3.5 0.00 0.01 0.01 49 1013.4
20260507233134 55 230 0.9 0.9 0.00 0.01 0.01 56 1013.4
20260507232629 56 146 0.9 0.9 0.00 0.01 0.01 53 1013.2
20260507232127 56 238 0.9 2.6 0.00 0.01 0.01 47 1013.2
20260507231623 57 355 1.7 5.2 0.00 0.01 0.01 44 1013.3
20260507231121 58 28 0.0 2.6 0.00 0.01 0.01 48 1013.2
20260507230617 59 245 1.7 3.5 0.00 0.01 0.01 46 1013.1
20260507230114 58 328 3.5 7.0 0.00 0.01 0.01 43 1013.1
20260507225609 59 349 5.2 7.0 0.00 0.01 0.01 42 1013.1
20260507225106 58 347 0.0 2.6 0.00 0.01 0.01 47 1013.1
20260507224601 58 33 1.7 2.6 0.00 0.01 0.01 44 1012.8
20260507224058 59 349 2.6 6.1 0.00 0.01 0.01 44 1012.8
20260507223554 58 326 0.9 5.2 0.00 0.01 0.01 47 1012.8
20260507223051 58 352 0.9 3.5 0.00 0.01 0.01 46 1013.0
20260507222548 58 286 1.7 3.5 0.00 0.01 0.01 49 1013.1
20260507222044 58 348 4.3 6.1 0.00 0.01 0.01 48 1012.6
20260507221541 60 335 3.5 5.2 0.00 0.01 0.01 47 1012.7
20260507221038 60 307 3.5 7.8 0.00 0.01 0.01 47 1012.7
20260507220535 59 290 3.5 7.0 0.00 0.01 0.01 45 1012.5
20260507220032 60 285 3.5 7.0 0.00 0.01 0.01 48 1012.5
20260507215528 58 322 3.5 5.2 0.00 0.01 0.01 48 1012.4
20260507215026 58 302 0.0 2.6 0.00 0.01 0.01 55 1012.4
20260507214523 58 310 3.5 5.2 0.00 0.01 0.01 52 1012.5
20260507214019 59 341 3.5 6.1 0.00 0.01 0.01 47 1012.2
20260507213515 58 307 4.3 6.1 0.00 0.01 0.01 48 1012.4
20260507213012 59 330 3.5 5.2 0.00 0.01 0.01 46 1012.4
20260507212508 60 322 5.2 7.0 0.00 0.01 0.01 46 1012.3
20260507212005 59 332 4.3 7.0 0.00 0.01 0.01 46 1012.2
20260507211502 60 264 1.7 5.2 0.00 0.01 0.01 47 1012.2
20260507210958 60 303 2.6 5.2 0.00 0.01 0.01 47 1012.1
20260507210455 60 237 3.5 7.0 0.00 0.01 0.01 46 1011.9
20260507205952 60 318 1.7 5.2 0.00 0.01 0.01 45 1012.1
20260507205449 63 289 1.7 5.2 0.00 0.01 0.01 45 1012.3
20260507204945 62 310 3.5 6.1 0.00 0.01 0.01 42 1011.9
20260507204442 62 349 2.6 7.8 0.00 0.01 0.01 48 1012.0
20260507203939 61 344 2.6 5.2 0.00 0.01 0.01 47 1012.1
20260507203437 58 315 1.7 6.1 0.00 0.01 0.01 46 1012.1
20260507202933 60 337 1.7 3.5 0.00 0.01 0.01 46 1012.2
20260507202430 58 307 2.6 6.1 0.00 0.01 0.01 53 1012.1
20260507201926 59 341 1.7 5.2 0.00 0.01 0.01 45 1012.0
20260507201421 59 295 3.5 6.1 0.00 0.01 0.01 48 1012.1
20260507200919 60 298 0.9 3.5 0.00 0.01 0.01 49 1012.1
20260507200414 61 349 0.9 3.5 0.00 0.01 0.01 44 1012.3
20260507195910 62 317 7.0 7.0 0.00 0.01 0.01 43 1012.4
20260507195408 59 3 5.2 6.1 0.00 0.01 0.01 49 1012.4
20260507194905 59 332 2.6 7.8 0.00 0.01 0.01 49 1012.8
20260507194401 58 323 5.2 8.7 0.00 0.01 0.01 50 1012.7
20260507193857 59 333 1.7 6.1 0.00 0.01 0.01 50 1012.6
20260507193354 60 234 2.6 3.5 0.00 0.01 0.01 48 1012.7
20260507192851 62 303 3.5 6.1 0.00 0.01 0.01 49 1012.6
20260507192347 60 314 3.5 8.7 0.00 0.01 0.01 50 1012.6
20260507191843 59 315 3.5 7.0 0.00 0.01 0.01 51 1012.7
20260507191340 59 336 4.3 6.1 0.00 0.01 0.01 51 1012.6
20260507190837 59 321 2.6 7.8 0.00 0.01 0.01 53 1012.8
20260507190335 58 289 2.6 7.0 0.00 0.01 0.01 52 1012.7
20260507185834 60 332 3.5 6.1 0.00 0.01 0.01 53 1012.7
20260507185330 60 342 3.5 7.0 0.00 0.01 0.01 51 1012.5
20260507184827 60 324 3.5 7.8 0.00 0.01 0.01 50 1012.6
20260507184325 62 262 2.6 5.2 0.00 0.01 0.01 47 1012.8
20260507183822 61 322 3.5 7.8 0.00 0.01 0.01 50 1013.1
20260507183319 61 279 4.3 8.7 0.00 0.01 0.01 49 1013.0
20260507182817 62 333 4.3 7.0 0.00 0.01 0.01 50 1013.0
20260507182312 61 349 5.2 8.7 0.00 0.01 0.01 51 1013.1
20260507181809 61 270 7.0 11.3 0.00 0.01 0.01 49 1013.0
20260507181304 62 267 4.3 6.1 0.00 0.01 0.01 54 1013.0
20260507180801 60 265 0.9 6.1 0.00 0.01 0.01 52 1012.8
20260507180258 60 320 4.3 8.7 0.00 0.01 0.01 50 1013.1
20260507175754 61 316 7.8 8.7 0.00 0.01 0.01 52 1013.2
20260507175251 60 335 3.5 6.1 0.00 0.01 0.01 51 1012.7
20260507174748 59 330 3.5 6.1 0.00 0.01 0.01 55 1013.2
20260507174246 59 305 6.1 7.8 0.00 0.01 0.01 50 1013.2
20260507173744 58 320 0.9 5.2 0.00 0.01 0.01 56 1013.3
20260507173241 60 273 4.3 7.8 0.00 0.01 0.01 58 1013.3
20260507172737 59 321 3.5 6.1 0.00 0.01 0.01 58 1013.4
20260507172234 60 324 5.2 7.8 0.00 0.01 0.01 57 1013.4
20260507171734 59 293 3.5 5.2 0.00 0.01 0.01 53 1013.7
20260507171232 60 328 3.5 7.0 0.00 0.01 0.01 52 1013.4
20260507170729 59 348 2.6 6.1 0.00 0.01 0.01 54 1013.7
20260507170225 59 320 1.7 7.0 0.00 0.01 0.01 54 1013.7
20260507165721 59 316 4.3 7.8 0.00 0.01 0.01 53 1013.8
20260507165217 59 6 3.5 6.1 0.00 0.01 0.01 55 1013.7
20260507164713 58 6 1.7 5.2 0.00 0.01 0.01 55 1013.7
20260507164211 58 336 3.5 5.2 0.00 0.01 0.01 54 1013.9
20260507163708 58 290 5.2 8.7 0.00 0.01 0.01 58 1013.9
20260507163206 58 352 3.5 5.2 0.00 0.01 0.01 61 1014.1
20260507162701 58 342 2.6 5.2 0.00 0.01 0.01 58 1014.1
20260507162158 58 196 2.6 3.5 0.00 0.01 0.01 57 1014.1
20260507161654 58 159 0.0 2.6 0.00 0.01 0.01 59 1014.1
20260507161150 57 327 2.6 5.2 0.00 0.01 0.01 61 1014.0
20260507160647 55 303 1.7 2.6 0.00 0.01 0.01 58 1014.3
20260507160144 57 273 4.3 6.1 0.00 0.01 0.01 61 1014.3
20260507155639 56 321 3.5 5.2 0.00 0.01 0.01 64 1014.1
20260507155136 54 5 1.7 3.5 0.00 0.01 0.01 60 1014.3
20260507154633 55 348 2.6 7.8 0.00 0.01 0.01 58 1014.4
20260507154131 56 345 3.5 6.1 0.00 0.01 0.01 62 1014.3
20260507153626 57 322 2.6 5.2 0.00 0.01 0.01 58 1014.4
20260507153123 56 316 1.7 3.5 0.00 0.01 0.01 64 1014.3
20260507152620 56 342 4.3 7.0 0.00 0.01 0.01 62 1014.5
20260507152116 55 321 3.5 5.2 0.00 0.01 0.01 64 1014.3
20260507151612 55 320 5.2 6.1 0.00 0.01 0.01 60 1014.5
20260507151109 55 322 2.6 5.2 0.00 0.01 0.01 63 1014.4
20260507150606 54 16 0.0 3.5 0.00 0.01 0.01 63 1014.6
20260507145557 55 334 0.9 0.9 0.00 0.01 0.01 66 1014.6
20260507145056 54 282 0.9 2.6 0.00 0.01 0.01 66 1014.8
20260507144552 54 179 0.0 2.6 0.00 0.01 0.01 66 1015.1
20260507144050 53 314 0.0 0.0 0.00 0.01 0.01 67 1014.9
20260507143546 54 92 0.0 0.0 0.00 0.01 0.01 70 1014.8
20260507143044 52 219 0.0 0.0 0.00 0.01 0.01 70 1015.0
20260507142538 53 221 0.9 1.7 0.00 0.01 0.01 72 1015.4
20260507142036 52 117 0.0 0.0 0.00 0.01 0.01 72 1015.3
20260507141532 52 313 0.9 1.7 0.00 0.01 0.01 78 1015.4
20260507141029 51 346 0.0 0.0 0.00 0.01 0.01 77 1015.4
20260507140526 51 346 0.0 0.0 0.00 0.01 0.01 80 1015.5
20260507140023 51 347 0.0 0.0 0.00 0.01 0.01 79 1015.5
20260507135520 51 346 0.0 0.0 0.00 0.01 0.01 80 1015.6
20260507135017 51 346 0.0 0.0 0.00 0.01 0.01 80 1015.7
20260507134514 51 346 0.0 0.0 0.00 0.01 0.01 77 1015.8
20260507134009 51 346 0.0 0.0 0.00 0.01 0.01 81 1015.8
20260507133506 50 346 0.0 0.0 0.00 0.01 0.01 79 1015.9
20260507133004 50 346 0.0 0.0 0.00 0.01 0.01 82 1015.9
20260507132500 50 346 0.0 0.0 0.00 0.01 0.01 82 1015.7
20260507131956 50 346 0.0 0.0 0.00 0.01 0.01 83 1015.9
20260507131454 50 354 0.0 0.0 0.00 0.01 0.01 83 1015.9
20260507130950 50 127 0.0 0.0 0.00 0.01 0.01 82 1015.9
20260507130447 50 9 0.0 0.0 0.00 0.01 0.01 86 1016.0
20260507125946 49 8 0.0 0.0 0.00 0.01 0.01 84 1015.9
20260507125444 49 8 0.0 0.0 0.00 0.01 0.01 88 1015.9
20260507124941 49 8 0.0 0.0 0.00 0.01 0.01 89 1016.0
20260507124437 49 8 0.0 0.0 0.00 0.01 0.01 90 1015.9
20260507123936 49 8 0.0 0.0 0.00 0.01 0.01 89 1016.2
20260507123433 48 8 0.0 0.0 0.00 0.01 0.01 89 1016.1
20260507122929 48 8 0.0 0.0 0.00 0.01 0.01 90 1016.0
20260507122424 48 7 0.9 0.9 0.00 0.01 0.01 90 1015.8
20260507121921 48 7 0.0 0.0 0.00 0.01 0.01 91 1016.1
20260507121416 48 8 0.0 0.0 0.00 0.01 0.01 91 1015.9
20260507120913 48 7 0.0 0.0 0.00 0.01 0.01 92 1015.9
20260507120409 48 7 0.0 0.0 0.00 0.01 0.01 93 1016.1
20260507115906 48 7 0.0 0.0 0.00 0.01 0.01 94 1015.9
20260507115402 47 7 0.0 0.0 0.00 0.01 0.01 95 1015.9
20260507114857 47 7 0.0 0.0 0.00 0.01 0.01 95 1015.7
20260507114354 47 7 0.0 0.0 0.00 0.01 0.01 95 1015.6
20260507113852 47 7 0.0 0.0 0.00 0.01 0.01 95 1015.6
20260507113349 47 7 0.0 0.0 0.00 0.01 0.01 95 1015.5
20260507112846 47 7 0.0 0.0 0.00 0.01 0.01 95 1015.6
20260507112343 47 7 0.0 0.0 0.00 0.01 0.01 96 1015.5
20260507111841 47 7 0.0 0.0 0.00 0.01 0.01 96 1015.3
20260507111338 47 7 0.0 0.0 0.00 0.01 0.01 96 1015.0
20260507110833 47 7 0.0 0.0 0.00 0.01 0.01 96 1015.3
20260507110330 46 7 0.0 0.0 0.00 0.01 0.01 95 1015.1
20260507105827 46 7 0.0 0.0 0.00 0.01 0.01 95 1014.9
20260507105323 46 7 0.0 0.9 0.00 0.01 0.01 95 1014.9
20260507104820 47 62 0.0 0.0 0.00 0.01 0.01 95 1014.9
20260507104317 47 62 0.0 0.0 0.00 0.01 0.01 95 1014.9
20260507103813 47 62 0.0 0.0 0.00 0.01 0.01 96 1014.9
20260507103309 46 62 0.0 0.0 0.00 0.01 0.01 96 1015.0
20260507102806 47 62 0.0 0.0 0.00 0.01 0.01 96 1014.9
20260507102306 47 62 0.0 0.0 0.00 0.01 0.01 96 1014.9
20260507101759 46 354 0.0 0.0 0.00 0.01 0.01 96 1014.8
20260507101254 46 354 0.0 0.0 0.00 0.01 0.01 96 1014.6
20260507100751 46 354 0.0 0.0 0.00 0.01 0.01 96 1014.9
20260507100250 46 354 0.0 0.0 0.00 0.01 0.01 96 1014.8
20260507095747 46 354 0.0 0.0 0.00 0.01 0.01 95 1014.6
20260507095243 46 354 0.0 0.0 0.00 0.01 0.01 95 1014.5
20260507094741 46 354 0.0 0.0 0.00 0.01 0.01 95 1014.6
20260507094238 46 354 0.0 0.0 0.00 0.01 0.01 95 1014.5
20260507093734 46 354 0.0 0.0 0.00 0.01 0.01 95 1014.2
20260507093233 46 354 0.0 0.0 0.00 0.01 0.01 95 1014.6
20260507092730 46 354 0.0 0.0 0.00 0.01 0.01 95 1014.6
20260507092226 46 354 0.0 0.0 0.00 0.01 0.01 95 1014.6
20260507091723 46 354 0.0 0.0 0.00 0.01 0.01 95 1014.8
20260507091219 46 354 0.0 0.0 0.00 0.01 0.01 95 1014.8
20260507090719 47 354 0.0 0.0 0.00 0.01 0.01 95 1014.6
20260507090216 47 354 0.0 0.0 0.00 0.01 0.01 95 1014.8
20260507085713 46 354 0.0 0.0 0.00 0.01 0.01 94 1014.6
20260507085210 47 354 0.0 0.0 0.00 0.01 0.01 94 1014.5
20260507084707 47 354 0.0 0.0 0.00 0.01 0.01 94 1014.5
20260507084204 47 354 0.0 0.0 0.00 0.01 0.01 94 1014.4
20260507083701 47 305 0.0 1.7 0.00 0.01 0.01 94 1014.6
20260507083157 47 351 0.0 0.0 0.00 0.01 0.01 94 1014.8
20260507082653 47 328 0.0 0.9 0.00 0.01 0.01 95 1014.8
20260507082149 48 339 1.7 2.6 0.07 0.01 0.01 95 1014.6
20260507081646 48 90 0.0 0.0 0.07 0.01 0.01 96 1014.5
20260507081143 49 16 0.0 0.0 0.00 0.00 0.00 96 1014.7
20260507080639 48 16 0.0 0.0 0.00 0.00 0.00 95 1014.6
20260507080136 49 16 0.0 0.0 0.00 0.00 0.00 95 1014.4
20260507075637 48 16 0.0 0.0 0.00 0.00 0.00 95 1014.5
20260507075133 49 16 0.0 0.0 0.00 0.00 0.00 95 1014.3
20260507074630 48 16 0.0 0.0 0.00 0.00 0.00 95 1014.6
20260507074128 48 16 0.0 0.0 0.00 0.00 0.00 95 1014.5
20260507073624 48 16 0.0 0.0 0.00 0.00 0.00 95 1014.3
20260507073121 48 15 0.0 0.0 0.00 0.00 0.00 95 1014.4
20260507072619 48 37 0.0 0.0 0.00 0.00 0.00 95 1014.5
20260507072115 48 16 0.0 0.0 0.00 0.00 0.00 95 1014.5
20260507071613 48 16 0.0 0.0 0.00 0.00 0.00 95 1014.4
20260507071109 48 16 0.0 0.0 0.00 0.00 0.00 95 1014.5
20260507070607 48 16 0.0 0.0 0.00 0.00 0.00 95 1014.5
20260507070104 48 16 0.0 0.0 0.00 0.00 0.00 96 1014.5
20260507065600 49 289 0.0 0.0 0.00 0.00 0.00 96 1014.6
20260507065057 49 289 0.0 0.0 0.00 0.00 0.00 96 1014.4
20260507064555 49 289 0.0 0.0 0.00 0.00 0.00 95 1014.4
20260507064053 49 289 0.0 0.0 0.00 0.00 0.00 96 1014.5
20260507063550 49 289 0.0 0.0 0.00 0.00 0.00 96 1014.6
20260507063047 49 289 0.0 0.0 0.00 0.00 0.00 96 1014.4
20260507062543 49 289 0.0 0.0 0.00 0.00 0.00 96 1014.4
20260507062041 49 289 0.0 0.0 0.00 0.00 0.00 96 1014.7
20260507061539 49 289 0.0 0.0 0.00 0.00 0.00 96 1014.7
20260507061037 49 289 0.0 0.0 0.00 0.00 0.00 96 1014.8
20260507060534 49 289 0.0 0.0 0.00 0.00 0.00 96 1015.0
20260507060031 49 289 0.0 0.0 0.00 0.00 0.00 96 1015.0
20260507055525 49 289 0.0 0.0 0.00 0.00 0.00 96 1015.1
20260507055022 49 289 0.0 0.0 0.00 0.00 0.00 96 1015.1
20260507054518 49 289 0.0 0.0 0.00 0.00 0.00 96 1015.1
20260507054015 49 289 0.0 0.0 0.00 0.00 0.00 96 1015.0
20260507053513 49 289 0.0 0.0 0.00 0.00 0.00 96 1015.1
20260507053012 49 289 0.0 0.0 0.00 0.00 0.00 96 1015.4
20260507052509 49 289 0.0 0.0 0.00 0.00 0.00 96 1015.6
20260507052005 49 289 0.0 0.0 0.00 0.00 0.00 96 1015.1
20260507051503 49 289 0.0 0.0 0.00 0.00 0.00 96 1015.4
20260507050959 49 289 0.0 0.0 0.00 0.00 0.00 96 1015.5
20260507050456 49 289 0.0 0.0 0.00 0.00 0.00 96 1015.1
20260507045953 49 289 0.0 0.0 0.00 0.00 0.00 95 1015.1
20260507045449 49 289 0.0 0.0 0.00 0.00 0.00 95 1015.1
20260507044947 49 289 0.0 0.0 0.00 0.00 0.00 95 1015.1
20260507044443 49 289 0.0 0.0 0.00 0.00 0.00 95 1015.4
20260507043939 49 289 0.0 0.0 0.00 0.00 0.00 95 1015.1
20260507043436 49 289 0.0 0.0 0.00 0.00 0.00 95 1014.9
20260507042932 49 289 0.0 0.0 0.00 0.00 0.00 95 1015.1
20260507042429 49 289 0.0 0.0 0.00 0.00 0.00 95 1015.0
20260507041925 49 289 0.0 0.0 0.00 0.00 0.00 95 1014.9
20260507041422 49 333 0.0 0.0 0.00 0.00 0.00 95 1015.1
20260507040919 49 273 0.0 0.0 0.00 0.00 0.00 95 1015.1
20260507040415 49 273 0.0 0.0 0.00 0.00 0.00 94 1014.9
20260507035911 49 273 0.0 0.0 0.00 0.67 0.67 94 1014.9
20260507035407 49 273 0.0 0.0 0.00 0.67 0.67 94 1014.8
20260507034904 49 273 0.0 0.0 0.00 0.67 0.67 94 1015.1
20260507034401 49 273 0.0 0.0 0.00 0.67 0.67 94 1014.8